#timestamp,LO_Frequency,Hit,StdDev 
1649307615.7,286046994.2,N
1649307635.5,286046999.2,N
1649307655.4,286046997.3,N
1649307675.2,286047000.3,N
1649307695.0,286046998.7,N
1649307695.9,286046998.7,N
1649307715.8,286046996.3,N
1649307735.6,286046994.1,N
1649307755.5,286046994.0,N
1649307775.3,286046994.3,N
1649307795.1,286046997.4,N
1649307815.9,286046997.1,N
1649307835.7,286046999.2,N
1649307855.5,286046997.2,N
1649307875.4,286046991.9,Y
1649307895.2,286046997.8,P
1649307915.1,286046996.2,P
1649307916.0,286046996.2,P
1649307935.8,286046997.9,Y
1649307955.6,286047001.3,P
1649307975.5,286047005.0,N
1649307995.3,286047008.7,N
1649308015.1,286047006.7,N
1649308035.9,286047010.3,N
1649308055.7,286047007.9,N
1649308075.6,286047009.0,N
1649308095.4,286047002.8,N
1649308115.2,286047002.7,N
1649308135.1,286047002.9,N
1649308136.0,286047002.9,N
1649308155.8,286047007.2,N
1649308175.6,286047006.3,N
1649308195.5,286047011.8,Y
1649308215.3,286047002.7,P
1649308235.2,286047001.2,N
1649308255.9,286047000.4,N
1649308275.7,286046999.0,N
1649308295.6,286047002.0,N
1649308315.4,286046999.9,N
1649308335.3,286047001.6,N
1649308355.1,286047004.8,N
1649308356.0,286047004.8,N
1649308375.8,286047005.5,N
1649308395.7,286047001.4,N
1649308415.5,286047005.7,N
1649308435.3,286047002.8,N
1649308455.2,286046998.7,N
1649308475.0,286046997.0,N
1649308475.9,286046997.0,N
1649308495.8,286046999.0,N
1649308515.6,286046996.6,N
1649308535.4,286046998.9,N
1649308555.3,286047001.1,N
1649308575.1,286047004.0,N
1649308595.8,286047005.9,N
1649308615.7,286047000.3,N
1649308635.5,286046997.1,N
1649308655.4,286046999.3,N
1649308675.2,286046999.5,N
1649308695.0,286046993.7,N
1649308695.9,286046993.7,N
1649308715.8,286046993.5,N
1649308735.6,286046994.6,N
1649308755.4,286046990.1,N
1649308775.3,286046990.6,N
1649308795.1,286046992.0,N
1649308815.9,286046989.9,N
1649308835.7,286046990.7,N
1649308855.5,286046994.8,N
1649308875.4,286046991.7,N
1649308895.2,286046989.3,N
1649308915.0,286046989.3,N
1649308915.9,286046989.3,N
1649308935.8,286046987.3,N
1649308955.6,286046983.8,Y
1649308975.5,286046993.8,P
1649308995.3,286046993.2,P
1649309015.1,286046994.8,P
1649309035.9,286046991.6,Y
1649309055.7,286046995.2,P
1649309075.5,286047001.1,N
1649309095.4,286046997.2,N
1649309115.2,286046996.7,N
1649309135.1,286046998.3,N
1649309136.0,286046998.3,N
1649309155.8,286047001.4,N
1649309175.6,286047005.8,N
1649309195.5,286047001.8,N
1649309215.3,286047001.9,N
1649309235.1,286046998.6,N
1649309255.9,286046998.6,N
1649309275.7,286046997.5,N
1649309295.6,286046998.3,N
1649309315.4,286047000.2,N
1649309335.2,286047005.8,N
1649309355.1,286047009.1,N
1649309356.0,286047009.1,N
1649309375.8,286047007.5,N
1649309395.6,286047005.7,N
1649309415.5,286047003.8,N
1649309435.3,286047004.9,N
1649309455.2,286047011.7,N
1649309475.9,286047011.9,N
1649309495.7,286047011.8,N
1649309515.6,286047013.7,N
1649309535.4,286047012.9,N
1649309555.2,286047015.5,N
1649309575.1,286047013.4,N
1649309576.0,286047013.4,N
1649309595.8,286047013.6,N
1649309615.7,286047013.6,N
1649309635.5,286047009.5,N
1649309655.3,286047007.6,N
1649309675.2,286046996.9,N
1649309695.0,286046996.3,N
1649309695.9,286046996.3,N
1649309715.7,286046994.7,N
1649309735.6,286046990.5,N
1649309755.4,286046989.9,N
1649309775.3,286046982.1,N
1649309795.1,286046977.6,N
1649309796.0,286046977.6,N
1649309815.8,286046972.6,N
1649309835.7,286046972.0,N
1649309855.5,286046968.4,N
1649309875.3,286046963.6,N
1649309895.2,286046964.3,N
1649309915.0,286046962.5,N
1649309915.9,286046962.5,N
1649309935.8,286046959.8,N
1649309955.6,286046956.5,N
1649309975.4,286046957.5,N
1649309995.3,286046953.3,N
1649310015.1,286046957.8,N
1649310035.8,286046951.8,N
1649310055.7,286046949.1,N
1649310075.5,286046946.5,N
1649310095.4,286046944.0,N
1649310115.2,286046942.2,N
1649310135.0,286046946.4,N
1649310135.9,286046946.4,N
1649310155.8,286046945.1,N
1649310175.6,286046942.1,Y
1649310195.5,286046978.8,P
1649310215.3,286046982.7,P
1649310235.1,286046981.3,N
1649310255.9,286046979.5,Y
1649310275.7,286046998.8,P
1649310295.5,286046997.1,N
1649310315.4,286046994.3,N
1649310335.2,286046993.1,N
1649310355.1,286046992.2,N
1649310356.0,286046992.2,N
1649310375.8,286046994.2,N
1649310395.6,286046996.1,N
1649310415.5,286046997.9,N
1649310435.3,286046997.5,N
1649310455.1,286046993.8,N
1649310475.9,286046990.9,N
1649310495.7,286046991.4,N
1649310515.6,286046989.7,N
1649310535.4,286046987.4,N
1649310555.2,286046987.4,N
1649310575.1,286046993.2,N
1649310576.0,286046993.2,N
1649310595.8,286047000.1,N
1649310615.6,286047012.0,N
1649310635.5,286047011.8,N
1649310655.3,286047012.3,N
1649310675.2,286047017.4,N
1649310695.9,286047023.7,N
1649310715.7,286047024.0,N
1649310735.6,286047020.9,N
1649310755.4,286047018.9,N
1649310775.2,286047014.6,N
1649310795.1,286047018.4,N
1649310796.0,286047018.4,N
1649310815.8,286047018.2,N
1649310835.7,286047015.2,N
1649310855.5,286047010.5,N
1649310875.3,286047009.1,N
1649310895.2,286047001.7,N
1649310915.0,286047001.7,N
1649310915.9,286047001.7,N
1649310935.7,286047003.6,N
1649310985.6,286047007.2,E
1649310995.5,286047007.1,N
1649311015.4,286047009.1,P
1649311035.2,286047002.5,N
1649311055.0,286047002.2,N
1649311056.0,286047002.2,N
1649311075.8,286047008.3,N
1649311095.6,286047007.3,N
1649311115.5,286047005.2,N
1649311135.3,286047004.1,N
1649311155.1,286047000.7,N
1649311175.9,286046998.7,N
1649311195.7,286046994.2,N
